星链-37260(STARLINK-37260)

导读

STARLINK-37260(NORAD编号68510)是SpaceX星链(Starlink)卫星互联网星座中的一颗低轨通信卫星,归属于美国太空探索技术公司(SpaceX)。星链星座旨在为全球提供高速低延迟互联网覆盖,该卫星承担卫星互联网接入服务相关任务。它运行在近地轨道,属于星链网络批量部署的卫星之一,依托星链星座部署规划,补充全球卫星互联网的覆盖容量与服务能力,支撑偏远地区网络覆盖、移动互联等应用场景。

Basic Information
目录编号:
68510
目录名称:
STARLINK-37260
国际标识:
2026-068C
轨道中心:
EARTH
卫星名称:
星链-37260
卫星全名:
星链-37260(STARLINK-37260)
卫星状态:
在轨 (已飞行120 天)
发射日期:
2026-03-30 UTC
国别 :
美国 (US)
星等 :
--
Orbit Information
数据来源 国际轨道数据 AOE轨道数据
星历时间 2026-07-27T12:46:25+0800
22小时前
查看轨道信息
2026-07-23T22:00:00+0800
4天前
查看轨道信息
半长轴 6840.829km 6840.918km
偏心率 0.0001098 0.0001302
轨道倾角 53.155° 53.156°
近地点辐角 110.833° 87.322°
升交点赤经 196.300° 213.205°
平近点角 249.279° 89.904°
近地点 461.94km 461.89km
远地点 463.444km 463.672km
周期 93.848分钟 93.849分钟
每日圈数 15.34404 15.343739
Detailed Information
固有亮度:
5
最大亮度:
2.5
卫星平台:
Starlink V1.0
覆盖范围:
全球
运营商:
太空探索技术公司
运营商所在国:
美国
制造商(研发单位):
太空探索技术公司
制造商所在国:
美国
使用方式:
暂无
Satellite Introduction
Starlink 计划是 SpaceX 推出的全球卫星互联网项目,通过发射低轨道卫星,为全球尤其是偏远地区提供高速、低延迟的互联网服务。自 2019 年起,Starlink 已部署数千颗卫星,旨在缩小全球数字鸿沟,推动互联网普及。该项目还为军事、航空等行业提供通信支持,带来广泛经济效益。
2D Orbit Map
3D Orbit Map
Orbit Altitude Analysis Chart
Orbit Inclination Analysis Chart
Orbit Comprehensive Analysis Chart
View Comprehensive Chart